VOE56LC LIEO-LFRB

Flight info

Callsign VOE56LC
Flight time 2h 8m
Altitude 38000
Route OKIVA P872 AJO W54 STP A3 AMFOU R161 MINDI/N0449F380 DCT LERGA DCT ADABI/N0396F180 R66 POI G54 ABSIE/N0402F190 G54 LUGEN/N0396F180 R66 RIMON T499 LUTAS H34 ROSPO
Aircraft A319/M-SDE3FGHIRWY/LB1

Departure

Time 2026-04-21 10:06
Airport Olbia Costa Smeralda Airport (LIEO)

Arrival

Time 2026-04-21 12:15
Airport Brest Bretagne airport (LFRB)
Time Latitude Longitude Altitude Speed Heading
2026-04-21 09:27 40.90203 9.51572 34 ft 0 kts 325°
2026-04-21 09:59 40.90202 9.51573 34 ft 2 kts 325°
2026-04-21 09:59 40.90185 9.51587 34 ft 3 kts 336°
2026-04-21 09:59 40.90166 9.51596 32 ft 3 kts 352°
2026-04-21 09:59 40.90146 9.51597 31 ft 3 kts 16°
2026-04-21 10:00 40.90130 9.51586 30 ft 2 kts 55°
2026-04-21 10:00 40.90129 9.51585 32 ft 0 kts 55°
2026-04-21 10:02 40.90135 9.51596 33 ft 4 kts 55°
2026-04-21 10:02 40.90158 9.51640 33 ft 8 kts 55°
2026-04-21 10:02 40.90197 9.51715 33 ft 11 kts 56°
2026-04-21 10:03 40.90213 9.51794 32 ft 9 kts 131°
2026-04-21 10:03 40.90184 9.51868 34 ft 10 kts 103°
2026-04-21 10:03 40.90181 9.51968 34 ft 13 kts 70°
2026-04-21 10:03 40.90235 9.52076 34 ft 15 kts 56°
2026-04-21 10:04 40.90293 9.52189 34 ft 15 kts 56°
2026-04-21 10:04 40.90334 9.52266 34 ft 15 kts 54°
2026-04-21 10:04 40.90394 9.52381 34 ft 15 kts 56°
2026-04-21 10:04 40.90449 9.52493 34 ft 13 kts 65°
2026-04-21 10:05 40.90452 9.52609 34 ft 13 kts 94°
2026-04-21 10:05 40.90413 9.52692 34 ft 11 kts 161°
2026-04-21 10:05 40.90342 9.52664 32 ft 12 kts 220°
2026-04-21 10:05 40.90316 9.52621 34 ft 0 kts 234°
2026-04-21 10:06 40.90296 9.52583 34 ft 28 kts 235°
2026-04-21 10:06 40.90033 9.52082 34 ft 102 kts 235°
2026-04-21 10:06 40.89519 9.51102 103 ft 150 kts 234°
2026-04-21 10:06 40.88933 9.49960 762 ft 150 kts 236°
2026-04-21 10:07 40.88348 9.48831 1493 ft 148 kts 237°
2026-04-21 10:07 40.87750 9.47683 2102 ft 160 kts 237°
2026-04-21 10:07 40.87077 9.46394 2547 ft 182 kts 237°
2026-04-21 10:07 40.86310 9.44927 2932 ft 207 kts 238°
2026-04-21 10:08 40.85450 9.43292 3582 ft 222 kts 237°
2026-04-21 10:08 40.84554 9.41600 4494 ft 229 kts 238°
2026-04-21 10:08 40.83816 9.39732 5411 ft 231 kts 258°
2026-04-21 10:08 40.83784 9.37624 6349 ft 232 kts 285°
2026-04-21 10:09 40.84494 9.35671 6913 ft 249 kts 310°
2026-04-21 10:09 40.85962 9.34308 7495 ft 268 kts 333°
2026-04-21 10:09 40.87661 9.33241 8356 ft 273 kts 332°
2026-04-21 10:09 40.89392 9.32145 9289 ft 277 kts 332°
2026-04-21 10:10 40.91144 9.31025 10159 ft 283 kts 332°
2026-04-21 10:10 40.92983 9.29839 10519 ft 306 kts 332°
2026-04-21 10:10 40.94975 9.28549 10854 ft 329 kts 332°
2026-04-21 10:10 40.97059 9.27201 11488 ft 337 kts 332°
2026-04-21 10:11 40.99207 9.25811 12308 ft 341 kts 332°
2026-04-21 10:11 41.01353 9.24425 13107 ft 344 kts 332°
2026-04-21 10:11 41.03537 9.23095 13862 ft 349 kts 338°
2026-04-21 10:11 41.05861 9.22112 14550 ft 352 kts 340°
2026-04-21 10:12 41.08214 9.21139 15244 ft 356 kts 340°
2026-04-21 10:12 41.10587 9.20156 15950 ft 359 kts 340°
2026-04-21 10:12 41.12980 9.19162 16639 ft 362 kts 340°
2026-04-21 10:12 41.15389 9.18160 17326 ft 365 kts 340°
2026-04-21 10:13 41.17823 9.17145 18017 ft 368 kts 340°
2026-04-21 10:13 41.20278 9.16119 18642 ft 371 kts 340°
2026-04-21 10:13 41.22751 9.15083 19251 ft 374 kts 340°
2026-04-21 10:13 41.25224 9.14043 19872 ft 376 kts 340°
2026-04-21 10:14 41.27739 9.12985 20488 ft 378 kts 339°
2026-04-21 10:14 41.30257 9.11927 21085 ft 381 kts 339°
2026-04-21 10:14 41.32780 9.10821 21652 ft 382 kts 336°
2026-04-21 10:14 41.35162 9.09269 22208 ft 382 kts 328°
2026-04-21 10:15 41.37484 9.07516 22766 ft 384 kts 328°
2026-04-21 10:15 41.39812 9.05757 23310 ft 387 kts 328°
2026-04-21 10:15 41.42160 9.03982 23781 ft 389 kts 328°
2026-04-21 10:15 41.44518 9.02199 24217 ft 391 kts 328°
2026-04-21 10:16 41.46893 9.00403 24644 ft 394 kts 328°
2026-04-21 10:16 41.49280 8.98598 25060 ft 396 kts 328°
2026-04-21 10:16 41.51687 8.96781 25492 ft 398 kts 328°
2026-04-21 10:16 41.54106 8.94950 25919 ft 401 kts 327°
2026-04-21 10:17 41.56532 8.93110 26334 ft 403 kts 327°
2026-04-21 10:17 41.58980 8.91253 26765 ft 406 kts 327°
2026-04-21 10:17 41.61440 8.89389 27165 ft 408 kts 327°
2026-04-21 10:17 41.63922 8.87506 27583 ft 411 kts 327°
2026-04-21 10:18 41.66409 8.85612 27974 ft 413 kts 327°
2026-04-21 10:18 41.68910 8.83704 28355 ft 415 kts 327°
2026-04-21 10:18 41.71430 8.81780 28726 ft 418 kts 327°
2026-04-21 10:18 41.73994 8.79817 29080 ft 420 kts 327°
2026-04-21 10:19 41.76432 8.77751 29411 ft 420 kts 321°
2026-04-21 10:19 41.78629 8.75175 29766 ft 420 kts 312°
2026-04-21 10:19 41.80637 8.72264 30119 ft 421 kts 310°
2026-04-21 10:19 41.82629 8.69369 30410 ft 423 kts 311°
2026-04-21 10:20 41.84632 8.66472 30772 ft 423 kts 311°
2026-04-21 10:20 41.86627 8.63592 31210 ft 421 kts 311°
2026-04-21 10:20 41.88612 8.60722 31648 ft 419 kts 311°
2026-04-21 10:20 41.90586 8.57860 32082 ft 417 kts 310°
2026-04-21 10:21 41.92555 8.55002 32526 ft 415 kts 310°
2026-04-21 10:21 41.94512 8.52157 32965 ft 414 kts 310°
2026-04-21 10:21 41.96458 8.49324 33408 ft 412 kts 310°
2026-04-21 10:21 41.98395 8.46497 33865 ft 410 kts 310°
2026-04-21 10:22 42.00322 8.43680 34246 ft 409 kts 310°
2026-04-21 10:22 42.02249 8.40866 34617 ft 408 kts 310°
2026-04-21 10:22 42.04165 8.38066 34980 ft 407 kts 310°
2026-04-21 10:22 42.06076 8.35267 35323 ft 406 kts 310°
2026-04-21 10:23 42.07979 8.32470 35654 ft 405 kts 310°
2026-04-21 10:23 42.09880 8.29675 35972 ft 404 kts 310°
2026-04-21 10:23 42.11779 8.26887 36285 ft 404 kts 310°
2026-04-21 10:23 42.13675 8.24100 36591 ft 403 kts 310°
2026-04-21 10:24 42.15568 8.21319 36886 ft 402 kts 310°
2026-04-21 10:24 42.17456 8.18541 37175 ft 402 kts 310°
2026-04-21 10:24 42.19340 8.15761 37459 ft 401 kts 310°
2026-04-21 10:24 42.21220 8.12981 37736 ft 401 kts 310°
2026-04-21 10:25 42.23102 8.10200 37927 ft 401 kts 310°
2026-04-21 10:25 42.26858 8.04650 37964 ft 400 kts 309°
2026-04-21 10:26 42.30605 7.99095 37960 ft 400 kts 309°
2026-04-21 10:26 42.34369 7.93504 37960 ft 400 kts 309°
2026-04-21 10:27 42.38106 7.87935 37959 ft 400 kts 309°
2026-04-21 10:27 42.41845 7.82364 37958 ft 400 kts 309°
2026-04-21 10:28 42.45581 7.76781 37962 ft 400 kts 309°
2026-04-21 10:28 42.49307 7.71178 37963 ft 400 kts 309°
2026-04-21 10:29 42.53038 7.65581 37967 ft 400 kts 309°
2026-04-21 10:29 42.56773 7.59983 37958 ft 400 kts 309°
2026-04-21 10:30 42.60496 7.54377 37961 ft 400 kts 309°
2026-04-21 10:30 42.64214 7.48757 37965 ft 400 kts 309°
2026-04-21 10:31 42.67938 7.43133 37965 ft 400 kts 309°
2026-04-21 10:31 42.71658 7.37497 37961 ft 401 kts 309°
2026-04-21 10:32 42.75376 7.31843 37963 ft 401 kts 309°
2026-04-21 10:32 42.79092 7.26184 37968 ft 401 kts 309°
2026-04-21 10:33 42.82810 7.20519 37969 ft 401 kts 309°
2026-04-21 10:33 42.86528 7.14842 37972 ft 401 kts 309°
2026-04-21 10:34 42.90238 7.09155 37970 ft 401 kts 309°
2026-04-21 10:34 42.93967 7.03428 37972 ft 401 kts 309°
2026-04-21 10:35 42.97682 6.97734 37978 ft 401 kts 309°
2026-04-21 10:35 43.01390 6.92040 37972 ft 401 kts 309°
2026-04-21 10:36 43.05095 6.86328 37970 ft 401 kts 309°
2026-04-21 10:36 43.08788 6.80609 37964 ft 401 kts 309°
2026-04-21 10:37 43.11860 6.75854 37960 ft 401 kts 309°
2026-04-21 10:37 43.15549 6.70128 37947 ft 401 kts 309°
2026-04-21 10:38 43.19187 6.64358 37947 ft 399 kts 303°
2026-04-21 10:38 43.21549 6.57564 37936 ft 396 kts 284°
2026-04-21 10:39 43.22093 6.50017 37923 ft 397 kts 274°
2026-04-21 10:39 43.22477 6.46286 37913 ft 395 kts 285°
2026-04-21 10:39 43.23416 6.42749 37909 ft 396 kts 296°
2026-04-21 10:39 43.24881 6.39555 37907 ft 398 kts 307°
2026-04-21 10:40 43.26822 6.36826 37911 ft 403 kts 317°
2026-04-21 10:40 43.31395 6.32314 37909 ft 405 kts 321°
2026-04-21 10:41 43.35986 6.27816 37916 ft 405 kts 318°
2026-04-21 10:41 43.39750 6.22212 37918 ft 398 kts 300°
2026-04-21 10:42 43.42945 6.15995 37916 ft 402 kts 313°
2026-04-21 10:42 43.45142 6.13598 37911 ft 407 kts 324°
2026-04-21 10:42 43.47707 6.11880 37912 ft 414 kts 336°
2026-04-21 10:42 43.50530 6.10962 37911 ft 423 kts 348°
2026-04-21 10:43 43.53477 6.10660 37912 ft 425 kts 349°
2026-04-21 10:43 43.59086 6.08727 37905 ft 412 kts 330°
2026-04-21 10:44 43.63787 6.04441 37901 ft 402 kts 313°
2026-04-21 10:44 43.67793 5.99050 37896 ft 402 kts 313°
2026-04-21 10:45 43.71805 5.93652 37901 ft 403 kts 313°
2026-04-21 10:45 43.75818 5.88236 37897 ft 403 kts 312°
2026-04-21 10:46 43.79823 5.82802 37908 ft 403 kts 312°
2026-04-21 10:46 43.83824 5.77352 37908 ft 403 kts 312°
2026-04-21 10:47 43.87846 5.71866 37912 ft 403 kts 312°
2026-04-21 10:47 43.91841 5.66407 37915 ft 403 kts 312°
2026-04-21 10:48 43.95828 5.60943 37923 ft 403 kts 312°
2026-04-21 10:48 43.99814 5.55477 37919 ft 403 kts 312°
2026-04-21 10:49 44.03800 5.50013 37925 ft 403 kts 312°
2026-04-21 10:49 44.07772 5.44533 37923 ft 402 kts 312°
2026-04-21 10:50 44.11746 5.39039 37924 ft 403 kts 312°
2026-04-21 10:50 44.15719 5.33548 37927 ft 402 kts 311°
2026-04-21 10:51 44.19688 5.28053 37935 ft 402 kts 312°
2026-04-21 10:51 44.23655 5.22553 37937 ft 402 kts 312°
2026-04-21 10:52 44.27626 5.17040 37939 ft 403 kts 311°
2026-04-21 10:52 44.31589 5.11512 37942 ft 403 kts 311°
2026-04-21 10:53 44.35551 5.05987 37944 ft 403 kts 311°
2026-04-21 10:53 44.39541 5.00405 37940 ft 403 kts 311°
2026-04-21 10:54 44.43474 4.94892 37947 ft 403 kts 311°
2026-04-21 10:54 44.47461 4.89301 37947 ft 403 kts 311°
2026-04-21 10:55 44.51424 4.83732 37951 ft 404 kts 311°
2026-04-21 10:55 44.55381 4.78146 37955 ft 404 kts 311°
2026-04-21 10:56 44.59493 4.72755 37954 ft 405 kts 315°
2026-04-21 10:56 44.63745 4.67551 37964 ft 406 kts 315°
2026-04-21 10:57 44.68003 4.62333 37968 ft 406 kts 315°
2026-04-21 10:57 44.72217 4.57057 37976 ft 406 kts 314°
2026-04-21 10:58 44.76414 4.51735 37970 ft 406 kts 314°
2026-04-21 10:58 44.80613 4.46401 37977 ft 406 kts 314°
2026-04-21 10:59 44.84817 4.41078 37986 ft 407 kts 314°
2026-04-21 10:59 44.89025 4.35748 37984 ft 407 kts 314°
2026-04-21 11:00 44.93225 4.30415 37989 ft 406 kts 314°
2026-04-21 11:00 44.97423 4.25065 37994 ft 407 kts 314°
2026-04-21 11:01 45.01618 4.19702 38003 ft 407 kts 314°
2026-04-21 11:01 45.05842 4.14303 38013 ft 406 kts 314°
2026-04-21 11:02 45.12118 4.06231 38019 ft 406 kts 313°
2026-04-21 11:02 45.15477 3.99928 38029 ft 400 kts 298°
2026-04-21 11:03 45.18271 3.93113 38038 ft 400 kts 298°
2026-04-21 11:03 45.21076 3.86304 38036 ft 400 kts 298°
2026-04-21 11:04 45.23889 3.79485 38031 ft 400 kts 298°
2026-04-21 11:04 45.26704 3.72668 38025 ft 400 kts 299°
2026-04-21 11:05 45.29593 3.65905 38025 ft 400 kts 300°
2026-04-21 11:05 45.32503 3.59164 38022 ft 400 kts 300°
2026-04-21 11:06 45.35393 3.52406 38015 ft 400 kts 299°
2026-04-21 11:06 45.38268 3.45633 38015 ft 400 kts 299°
2026-04-21 11:07 45.41140 3.38860 38017 ft 400 kts 299°
2026-04-21 11:07 45.44013 3.32088 38017 ft 400 kts 299°
2026-04-21 11:08 45.46873 3.25295 38024 ft 400 kts 299°
2026-04-21 11:08 45.49267 3.19596 38033 ft 400 kts 299°
2026-04-21 11:09 45.52127 3.12794 38037 ft 400 kts 299°
2026-04-21 11:09 45.54986 3.05984 38042 ft 400 kts 299°
2026-04-21 11:10 45.57842 2.99148 38045 ft 401 kts 299°
2026-04-21 11:10 45.60687 2.92306 38043 ft 401 kts 299°
2026-04-21 11:11 45.63540 2.85455 38046 ft 401 kts 299°
2026-04-21 11:11 45.66390 2.78605 38036 ft 401 kts 299°
2026-04-21 11:12 45.69235 2.71744 38035 ft 401 kts 298°
2026-04-21 11:12 45.72066 2.64865 38024 ft 401 kts 298°
2026-04-21 11:13 45.74900 2.57988 38025 ft 401 kts 298°
2026-04-21 11:13 45.77726 2.51115 38018 ft 401 kts 298°
2026-04-21 11:14 45.80546 2.44232 38017 ft 401 kts 298°
2026-04-21 11:14 45.83381 2.37293 38017 ft 401 kts 298°
2026-04-21 11:15 45.86191 2.30389 38021 ft 401 kts 298°
2026-04-21 11:15 45.89001 2.23483 38021 ft 401 kts 298°
2026-04-21 11:16 45.91808 2.16569 38020 ft 401 kts 298°
2026-04-21 11:16 45.94611 2.09654 38024 ft 401 kts 298°
2026-04-21 11:17 45.97407 2.02720 38023 ft 401 kts 298°
2026-04-21 11:17 46.00199 1.95783 38027 ft 401 kts 298°
2026-04-21 11:18 46.02991 1.88836 38025 ft 401 kts 298°
2026-04-21 11:18 46.05775 1.81878 38027 ft 401 kts 298°
2026-04-21 11:19 46.08559 1.74915 38027 ft 401 kts 298°
2026-04-21 11:19 46.11344 1.67935 38025 ft 401 kts 298°
2026-04-21 11:20 46.14121 1.60959 38037 ft 401 kts 298°
2026-04-21 11:20 46.16891 1.53966 38030 ft 402 kts 298°
2026-04-21 11:21 46.19658 1.46967 38032 ft 402 kts 298°
2026-04-21 11:21 46.22430 1.39952 38034 ft 402 kts 298°
2026-04-21 11:22 46.25202 1.32916 38030 ft 403 kts 298°
2026-04-21 11:22 46.27984 1.25836 38040 ft 403 kts 298°
2026-04-21 11:23 46.30753 1.18775 38038 ft 403 kts 297°
2026-04-21 11:23 46.33510 1.11706 38044 ft 404 kts 297°
2026-04-21 11:24 46.36257 1.04619 38039 ft 404 kts 297°
2026-04-21 11:24 46.39010 0.97528 38046 ft 404 kts 297°
2026-04-21 11:25 46.41757 0.90432 38049 ft 404 kts 297°
2026-04-21 11:25 46.44505 0.83330 38040 ft 404 kts 297°
2026-04-21 11:26 46.47247 0.76217 38053 ft 404 kts 297°
2026-04-21 11:26 46.49993 0.69096 38058 ft 404 kts 297°
2026-04-21 11:27 46.52736 0.61970 38053 ft 404 kts 297°
2026-04-21 11:27 46.55372 0.54770 38055 ft 403 kts 291°
2026-04-21 11:28 46.56643 0.46891 38058 ft 402 kts 277°
2026-04-21 11:28 46.57319 0.38817 38063 ft 402 kts 277°
2026-04-21 11:29 46.58001 0.30741 38056 ft 403 kts 276°
2026-04-21 11:29 46.58103 0.22598 38050 ft 403 kts 271°
2026-04-21 11:30 46.58102 0.14436 38047 ft 404 kts 271°
2026-04-21 11:30 46.58093 0.06216 38044 ft 404 kts 271°
2026-04-21 11:31 46.58073 -0.01955 38045 ft 404 kts 271°
2026-04-21 11:31 46.58057 -0.10142 38026 ft 405 kts 271°
2026-04-21 11:32 46.58031 -0.18340 38018 ft 406 kts 271°
2026-04-21 11:32 46.58005 -0.26556 38020 ft 407 kts 271°
2026-04-21 11:33 46.58096 -0.34774 38033 ft 407 kts 272°
2026-04-21 11:33 46.58261 -0.43000 38019 ft 407 kts 272°
2026-04-21 11:34 46.58380 -0.51223 38018 ft 407 kts 271°
2026-04-21 11:34 46.58379 -0.59459 38016 ft 408 kts 270°
2026-04-21 11:35 46.58347 -0.67700 38016 ft 408 kts 270°
2026-04-21 11:35 46.58330 -0.75943 38024 ft 408 kts 271°
2026-04-21 11:36 46.59263 -0.84019 38022 ft 408 kts 290°
2026-04-21 11:36 46.60520 -0.87715 38014 ft 409 kts 301°
2026-04-21 11:36 46.62252 -0.91014 38011 ft 412 kts 311°
2026-04-21 11:37 46.66521 -0.96635 38020 ft 415 kts 316°
2026-04-21 11:37 46.70852 -1.02199 38024 ft 415 kts 315°
2026-04-21 11:38 46.74572 -1.08602 38019 ft 411 kts 304°
2026-04-21 11:38 46.77989 -1.15311 38020 ft 412 kts 304°
2026-04-21 11:39 46.81395 -1.22034 38027 ft 412 kts 304°
2026-04-21 11:39 46.84805 -1.28772 38026 ft 413 kts 304°
2026-04-21 11:40 46.88212 -1.35528 38037 ft 413 kts 304°
2026-04-21 11:40 46.91605 -1.42296 38039 ft 413 kts 304°
2026-04-21 11:41 46.95004 -1.49080 38047 ft 413 kts 304°
2026-04-21 11:41 46.98404 -1.55866 38054 ft 413 kts 304°
2026-04-21 11:42 47.01800 -1.62667 38062 ft 414 kts 304°
2026-04-21 11:42 47.05190 -1.69476 38060 ft 414 kts 304°
2026-04-21 11:43 47.08579 -1.76308 38059 ft 414 kts 304°
2026-04-21 11:43 47.11419 -1.82034 38065 ft 414 kts 304°
2026-04-21 11:44 47.14804 -1.88882 38072 ft 414 kts 304°
2026-04-21 11:44 47.18182 -1.95745 38064 ft 415 kts 304°
2026-04-21 11:45 47.21563 -2.02615 38060 ft 415 kts 303°
2026-04-21 11:45 47.24945 -2.09497 38068 ft 415 kts 303°
2026-04-21 11:46 47.28320 -2.16396 38070 ft 415 kts 303°
2026-04-21 11:46 47.31695 -2.23301 38066 ft 415 kts 303°
2026-04-21 11:47 47.35065 -2.30219 38061 ft 416 kts 303°
2026-04-21 11:47 47.38433 -2.37148 38071 ft 416 kts 303°
2026-04-21 11:48 47.41798 -2.44089 38080 ft 416 kts 303°
2026-04-21 11:48 47.45159 -2.51048 38087 ft 416 kts 303°
2026-04-21 11:49 47.48455 -2.58077 38084 ft 415 kts 298°
2026-04-21 11:49 47.51020 -2.65700 38091 ft 414 kts 294°
2026-04-21 11:50 47.53536 -2.73378 38088 ft 415 kts 294°
2026-04-21 11:50 47.56038 -2.81075 38083 ft 415 kts 294°
2026-04-21 11:51 47.58764 -2.88677 38086 ft 417 kts 303°
2026-04-21 11:51 47.62526 -2.95279 38089 ft 420 kts 308°
2026-04-21 11:52 47.66350 -3.01810 38092 ft 420 kts 308°
2026-04-21 11:52 47.70171 -3.08381 38094 ft 420 kts 308°
2026-04-21 11:53 47.73947 -3.14999 38087 ft 419 kts 304°
2026-04-21 11:53 47.76886 -3.22430 38075 ft 417 kts 296°
2026-04-21 11:54 47.79677 -3.29999 38063 ft 417 kts 297°
2026-04-21 11:54 47.82472 -3.37570 38069 ft 418 kts 297°
2026-04-21 11:55 47.85261 -3.45151 38066 ft 418 kts 297°
2026-04-21 11:55 47.88036 -3.52755 37931 ft 418 kts 296°
2026-04-21 11:56 47.89434 -3.56585 36944 ft 425 kts 296°
2026-04-21 11:56 47.90852 -3.60474 36001 ft 429 kts 296°
2026-04-21 11:56 47.92282 -3.64403 35154 ft 431 kts 296°
2026-04-21 11:56 47.93735 -3.68318 34338 ft 433 kts 300°
2026-04-21 11:57 47.95601 -3.71864 33463 ft 436 kts 311°
2026-04-21 11:57 47.97946 -3.74746 32095 ft 441 kts 324°
2026-04-21 11:57 48.00722 -3.76782 30619 ft 450 kts 337°
2026-04-21 11:57 48.03769 -3.78020 29058 ft 454 kts 342°
2026-04-21 11:58 48.06826 -3.79159 27579 ft 452 kts 342°
2026-04-21 11:58 48.09857 -3.80298 26293 ft 446 kts 342°
2026-04-21 11:58 48.12845 -3.81431 24775 ft 443 kts 342°
2026-04-21 11:58 48.15886 -3.82603 22996 ft 447 kts 342°
2026-04-21 11:59 48.18887 -3.83766 21461 ft 443 kts 342°
2026-04-21 11:59 48.21845 -3.84909 20144 ft 436 kts 342°
2026-04-21 11:59 48.24769 -3.86038 18908 ft 429 kts 342°
2026-04-21 11:59 48.27639 -3.87142 17647 ft 422 kts 342°
2026-04-21 12:00 48.30461 -3.88226 16393 ft 415 kts 342°
2026-04-21 12:00 48.33236 -3.89294 15245 ft 408 kts 342°
2026-04-21 12:00 48.35973 -3.90347 14202 ft 402 kts 342°
2026-04-21 12:00 48.38612 -3.91362 13706 ft 381 kts 342°
2026-04-21 12:01 48.41141 -3.92339 12969 ft 368 kts 343°
2026-04-21 12:01 48.43555 -3.93322 12403 ft 350 kts 339°
2026-04-21 12:01 48.45694 -3.94869 11865 ft 335 kts 326°
2026-04-21 12:01 48.47467 -3.97050 11335 ft 324 kts 313°
2026-04-21 12:02 48.48840 -3.99713 10803 ft 321 kts 301°
2026-04-21 12:02 48.51006 -4.05256 10247 ft 297 kts 300°
2026-04-21 12:02 48.51868 -4.08052 9962 ft 294 kts 288°
2026-04-21 12:03 48.52304 -4.11052 9573 ft 293 kts 275°
2026-04-21 12:03 48.52362 -4.14131 9185 ft 293 kts 269°
2026-04-21 12:03 48.52379 -4.17209 8802 ft 294 kts 270°
2026-04-21 12:03 48.52403 -4.20285 8396 ft 293 kts 270°
2026-04-21 12:04 48.52434 -4.23351 7962 ft 293 kts 270°
2026-04-21 12:04 48.52465 -4.26422 7571 ft 293 kts 270°
2026-04-21 12:04 48.52494 -4.29497 7179 ft 293 kts 270°
2026-04-21 12:04 48.52521 -4.32566 6794 ft 292 kts 270°
2026-04-21 12:05 48.52545 -4.35633 6400 ft 292 kts 269°
2026-04-21 12:05 48.52568 -4.38689 5953 ft 292 kts 270°
2026-04-21 12:05 48.52591 -4.41759 5597 ft 291 kts 269°
2026-04-21 12:05 48.52611 -4.44780 5344 ft 286 kts 269°
2026-04-21 12:06 48.52629 -4.47745 5100 ft 279 kts 269°
2026-04-21 12:06 48.52648 -4.50613 4996 ft 269 kts 269°
2026-04-21 12:06 48.52604 -4.53341 4978 ft 253 kts 259°
2026-04-21 12:06 48.52145 -4.55860 4841 ft 241 kts 246°
2026-04-21 12:07 48.51604 -4.58222 4680 ft 236 kts 246°
2026-04-21 12:07 48.51076 -4.60541 4469 ft 233 kts 246°
2026-04-21 12:07 48.50552 -4.62842 4272 ft 232 kts 246°
2026-04-21 12:07 48.50028 -4.65143 4010 ft 232 kts 246°
2026-04-21 12:08 48.49499 -4.67443 3777 ft 232 kts 245°
2026-04-21 12:08 48.48670 -4.69459 3492 ft 222 kts 217°
2026-04-21 12:08 48.47434 -4.70709 3222 ft 209 kts 191°
2026-04-21 12:08 48.46055 -4.71108 3023 ft 198 kts 169°
2026-04-21 12:09 48.44691 -4.71047 3009 ft 193 kts 170°
2026-04-21 12:09 48.43363 -4.71005 3021 ft 189 kts 170°
2026-04-21 12:09 48.42059 -4.70928 3011 ft 184 kts 163°
2026-04-21 12:09 48.40981 -4.70134 2991 ft 168 kts 130°
2026-04-21 12:10 48.40400 -4.68671 2827 ft 162 kts 102°
2026-04-21 12:10 48.40226 -4.66992 2648 ft 162 kts 97°
2026-04-21 12:10 48.40056 -4.65305 2561 ft 163 kts 97°
2026-04-21 12:10 48.39940 -4.63628 2521 ft 158 kts 87°
2026-04-21 12:11 48.40212 -4.62027 2243 ft 160 kts 70°
2026-04-21 12:11 48.40586 -4.60434 2022 ft 160 kts 72°
2026-04-21 12:11 48.40930 -4.58932 2000 ft 142 kts 72°
2026-04-21 12:11 48.41230 -4.57619 2004 ft 125 kts 73°
2026-04-21 12:12 48.41505 -4.56407 1992 ft 119 kts 74°
2026-04-21 12:12 48.41770 -4.55238 1899 ft 117 kts 74°
2026-04-21 12:12 48.42035 -4.54067 1737 ft 117 kts 73°
2026-04-21 12:12 48.42292 -4.52925 1572 ft 115 kts 73°
2026-04-21 12:13 48.42548 -4.51790 1417 ft 114 kts 73°
2026-04-21 12:13 48.42805 -4.50652 1262 ft 114 kts 73°
2026-04-21 12:13 48.43049 -4.49497 1113 ft 116 kts 73°
2026-04-21 12:13 48.43309 -4.48351 932 ft 113 kts 71°
2026-04-21 12:14 48.43574 -4.47223 785 ft 116 kts 72°
2026-04-21 12:14 48.43837 -4.46066 633 ft 116 kts 73°
2026-04-21 12:14 48.44101 -4.44902 500 ft 118 kts 71°
2026-04-21 12:14 48.44360 -4.43737 330 ft 117 kts 70°
2026-04-21 12:15 48.44600 -4.42681 307 ft 90 kts 71°
2026-04-21 12:15 48.44745 -4.42036 332 ft 40 kts 71°
2026-04-21 12:15 48.44799 -4.41795 337 ft 19 kts 71°
2026-04-21 12:15 48.44794 -4.41670 332 ft 13 kts 135°
2026-04-21 12:16 48.44737 -4.41627 333 ft 12 kts 159°
2026-04-21 12:16 48.44664 -4.41644 333 ft 12 kts 224°
2026-04-21 12:16 48.44632 -4.41761 332 ft 13 kts 251°
2026-04-21 12:16 48.44601 -4.41893 331 ft 14 kts 252°
2026-04-21 12:17 48.44571 -4.42034 330 ft 9 kts 251°
2026-04-21 12:17 48.44541 -4.42087 331 ft 8 kts 201°
2026-04-21 12:17 48.44487 -4.42084 332 ft 8 kts 187°
2026-04-21 12:17 48.44433 -4.42099 330 ft 5 kts 191°
2026-04-21 12:18 48.44417 -4.42103 331 ft 0 kts 191°